| time (UTC) | temp C | wind direction | speed KPH | gust KPH | rain 1hr cm | rain 24hr cm | rain mn cm | humidity % | barometer mb |
| 20260509002923 | 20 | 29 | 8.0 | 17.7 | 0.00 | 0.00 | 0.00 | 50 | 1023.6 |
| 20260509002423 | 20 | 30 | 8.0 | 14.5 | 0.00 | 0.00 | 0.00 | 50 | 1023.6 |
| 20260509001923 | 20 | 30 | 4.8 | 17.7 | 0.00 | 0.00 | 0.00 | 51 | 1023.7 |
| 20260509001423 | 20 | 28 | 3.2 | 14.5 | 0.00 | 0.00 | 0.00 | 51 | 1023.8 |
| 20260509000923 | 19 | 61 | 3.2 | 6.4 | 0.00 | 0.00 | 0.00 | 50 | 1023.8 |
| 20260509000425 | 18 | 17 | 3.2 | 9.7 | 0.00 | 0.00 | 0.00 | 50 | 1024.0 |
| 20260508235923 | 18 | 68 | 3.2 | 6.4 | 0.00 | 0.00 | 0.00 | 51 | 1023.8 |
| 20260508235423 | 18 | 19 | 3.2 | 6.4 | 0.00 | 0.00 | 0.00 | 51 | 1023.8 |
| 20260508234923 | 17 | 94 | 3.2 | 6.4 | 0.00 | 0.00 | 0.00 | 51 | 1023.9 |
| 20260508234423 | 17 | 83 | 3.2 | 6.4 | 0.00 | 0.00 | 0.00 | 53 | 1023.9 |
| 20260508233923 | 17 | 85 | 3.2 | 6.4 | 0.00 | 0.00 | 0.00 | 53 | 1023.9 |
| 20260508233423 | 16 | 103 | 3.2 | 6.4 | 0.00 | 0.00 | 0.00 | 54 | 1023.8 |
| 20260508232923 | 16 | 92 | 3.2 | 4.8 | 0.00 | 0.00 | 0.00 | 55 | 1023.7 |
| 20260508232423 | 16 | 112 | 3.2 | 6.4 | 0.00 | 0.00 | 0.00 | 54 | 1023.7 |
| 20260508231923 | 15 | 117 | 1.6 | 6.4 | 0.00 | 0.00 | 0.00 | 56 | 1023.8 |
| 20260508231423 | 15 | 105 | 1.6 | 4.8 | 0.00 | 0.00 | 0.00 | 57 | 1023.7 |
| 20260508230923 | 15 | 93 | 1.6 | 4.8 | 0.00 | 0.00 | 0.00 | 58 | 1023.5 |
| 20260508230423 | 14 | 112 | 1.6 | 4.8 | 0.00 | 0.00 | 0.00 | 60 | 1023.7 |
| 20260508225923 | 14 | 111 | 3.2 | 4.8 | 0.00 | 0.00 | 0.00 | 63 | 1023.7 |
| 20260508225423 | 13 | 109 | 3.2 | 6.4 | 0.00 | 0.00 | 0.00 | 64 | 1023.6 |
| 20260508224923 | 13 | 133 | 1.6 | 4.8 | 0.00 | 0.00 | 0.00 | 64 | 1023.5 |
| 20260508224423 | 12 | 126 | 0.0 | 4.8 | 0.00 | 0.00 | 0.00 | 67 | 1023.5 |
| 20260508223923 | 11 | 44 | 0.0 | 1.6 | 0.00 | 0.00 | 0.00 | 68 | 1023.5 |
| 20260508223423 | 11 | 44 | 0.0 | 1.6 | 0.00 | 0.00 | 0.00 | 69 | 1023.5 |
| 20260508222923 | 11 | 44 | 0.0 | 1.6 | 0.00 | 0.00 | 0.00 | 69 | 1023.4 |
| 20260508222423 | 11 | 44 | 0.0 | 0.0 | 0.00 | 0.00 | 0.00 | 67 | 1023.3 |
| 20260508221923 | 11 | 44 | 0.0 | 0.0 | 0.00 | 0.00 | 0.00 | 67 | 1023.3 |
| 20260508221423 | 10 | 46 | 1.6 | 3.2 | 0.00 | 0.00 | 0.00 | 67 | 1023.2 |
| 20260508220923 | 10 | 47 | 1.6 | 4.8 | 0.00 | 0.00 | 0.00 | 67 | 1023.1 |
| 20260508220423 | 11 | 47 | 0.0 | 4.8 | 0.00 | 0.00 | 0.00 | 67 | 1022.9 |
| 20260508215923 | 11 | 47 | 0.0 | 0.0 | 0.00 | 0.00 | 0.00 | 67 | 1023.0 |
| 20260508215423 | 11 | 47 | 0.0 | 1.6 | 0.00 | 0.00 | 0.00 | 67 | 1022.8 |
| 20260508214923 | 11 | 47 | 0.0 | 0.0 | 0.00 | 0.00 | 0.00 | 66 | 1022.8 |
| 20260508214423 | 11 | 47 | 0.0 | 1.6 | 0.00 | 0.00 | 0.00 | 66 | 1022.7 |
| 20260508213923 | 11 | 49 | 0.0 | 3.2 | 0.00 | 0.00 | 0.00 | 67 | 1022.6 |
| 20260508213423 | 10 | 49 | 0.0 | 1.6 | 0.00 | 0.00 | 0.00 | 64 | 1022.6 |
| 20260508212923 | 10 | 49 | 0.0 | 3.2 | 0.00 | 0.00 | 0.00 | 64 | 1022.6 |
| 20260508212423 | 10 | 50 | 0.0 | 1.6 | 0.00 | 0.00 | 0.00 | 63 | 1022.6 |
| 20260508211923 | 10 | 50 | 0.0 | 1.6 | 0.00 | 0.00 | 0.00 | 64 | 1022.4 |
| 20260508211423 | 10 | 50 | 0.0 | 1.6 | 0.00 | 0.00 | 0.00 | 65 | 1022.5 |
| 20260508210923 | 10 | 50 | 0.0 | 1.6 | 0.00 | 0.00 | 0.00 | 65 | 1022.3 |
| 20260508210423 | 10 | 50 | 0.0 | 1.6 | 0.00 | 0.00 | 0.00 | 64 | 1022.3 |
| 20260508205923 | 10 | 50 | 0.0 | 1.6 | 0.00 | 0.00 | 0.00 | 63 | 1022.3 |
| 20260508205423 | 10 | 51 | 0.0 | 1.6 | 0.00 | 0.00 | 0.00 | 63 | 1022.4 |
| 20260508204923 | 10 | 51 | 0.0 | 1.6 | 0.00 | 0.00 | 0.00 | 63 | 1022.3 |
| 20260508204423 | 10 | 51 | 0.0 | 1.6 | 0.00 | 0.00 | 0.00 | 63 | 1022.2 |
| 20260508203923 | 10 | 51 | 0.0 | 3.2 | 0.00 | 0.00 | 0.00 | 63 | 1022.2 |
| 20260508203423 | 10 | 51 | 1.6 | 4.8 | 0.00 | 0.00 | 0.00 | 63 | 1022.1 |
| 20260508202923 | 10 | 51 | 3.2 | 3.2 | 0.00 | 0.00 | 0.00 | 63 | 1022.0 |
| 20260508202423 | 10 | 51 | 3.2 | 4.8 | 0.00 | 0.00 | 0.00 | 63 | 1021.9 |
| 20260508201923 | 10 | 51 | 1.6 | 4.8 | 0.00 | 0.00 | 0.00 | 63 | 1021.9 |
| 20260508201423 | 10 | 50 | 0.0 | 4.8 | 0.00 | 0.00 | 0.00 | 62 | 1021.9 |
| 20260508200923 | 11 | 50 | 0.0 | 1.6 | 0.00 | 0.00 | 0.00 | 61 | 1021.6 |
| 20260508200423 | 11 | 50 | 0.0 | 3.2 | 0.00 | 0.00 | 0.00 | 61 | 1021.6 |
| 20260508195923 | 11 | 49 | 1.6 | 3.2 | 0.00 | 0.00 | 0.00 | 61 | 1021.4 |
| 20260508195423 | 11 | 49 | 0.0 | 4.8 | 0.00 | 0.00 | 0.00 | 61 | 1021.4 |
| 20260508194923 | 11 | 50 | 0.0 | 1.6 | 0.00 | 0.00 | 0.00 | 61 | 1021.4 |
| 20260508194423 | 11 | 50 | 0.0 | 1.6 | 0.00 | 0.00 | 0.00 | 60 | 1021.3 |
| 20260508193923 | 11 | 50 | 0.0 | 1.6 | 0.00 | 0.00 | 0.00 | 60 | 1021.3 |
| 20260508193423 | 11 | 50 | 0.0 | 1.6 | 0.00 | 0.00 | 0.00 | 60 | 1021.2 |
| 20260508192923 | 10 | 49 | 0.0 | 3.2 | 0.00 | 0.00 | 0.00 | 61 | 1021.1 |
| 20260508192423 | 10 | 49 | 1.6 | 1.6 | 0.00 | 0.00 | 0.00 | 62 | 1021.0 |
| 20260508191923 | 10 | 49 | 1.6 | 4.8 | 0.00 | 0.00 | 0.00 | 62 | 1020.9 |
| 20260508191423 | 11 | 48 | 0.0 | 1.6 | 0.00 | 0.00 | 0.00 | 61 | 1020.9 |
| 20260508190923 | 11 | 49 | 0.0 | 3.2 | 0.00 | 0.00 | 0.00 | 61 | 1021.0 |
| 20260508190423 | 11 | 49 | 0.0 | 1.6 | 0.00 | 0.00 | 0.00 | 61 | 1020.9 |
| 20260508185923 | 11 | 49 | 0.0 | 1.6 | 0.00 | 0.00 | 0.00 | 60 | 1020.8 |
| 20260508185423 | 11 | 49 | 1.6 | 4.8 | 0.00 | 0.00 | 0.00 | 60 | 1020.9 |
| 20260508184923 | 11 | 49 | 1.6 | 3.2 | 0.00 | 0.00 | 0.00 | 60 | 1020.9 |
| 20260508184423 | 11 | 49 | 1.6 | 4.8 | 0.00 | 0.00 | 0.00 | 61 | 1020.8 |
| 20260508183923 | 11 | 48 | 1.6 | 4.8 | 0.00 | 0.00 | 0.00 | 61 | 1020.8 |
| 20260508183423 | 11 | 49 | 1.6 | 3.2 | 0.00 | 0.00 | 0.00 | 61 | 1020.7 |
| 20260508182923 | 11 | 48 | 1.6 | 4.8 | 0.00 | 0.00 | 0.00 | 61 | 1020.7 |
| 20260508182423 | 11 | 46 | 0.0 | 3.2 | 0.00 | 0.00 | 0.00 | 60 | 1020.7 |
| 20260508181923 | 11 | 46 | 0.0 | 3.2 | 0.00 | 0.00 | 0.00 | 60 | 1020.7 |
| 20260508181423 | 11 | 46 | 0.0 | 1.6 | 0.00 | 0.00 | 0.00 | 60 | 1020.7 |
| 20260508180923 | 11 | 46 | 1.6 | 3.2 | 0.00 | 0.00 | 0.00 | 60 | 1020.7 |
| 20260508180423 | 11 | 46 | 1.6 | 4.8 | 0.00 | 0.00 | 0.00 | 60 | 1020.8 |
| 20260508175923 | 11 | 46 | 1.6 | 4.8 | 0.00 | 0.00 | 0.00 | 61 | 1020.7 |
| 20260508175423 | 11 | 46 | 0.0 | 4.8 | 0.00 | 0.00 | 0.00 | 60 | 1020.7 |
| 20260508174923 | 11 | 45 | 1.6 | 3.2 | 0.00 | 0.00 | 0.00 | 60 | 1020.7 |
| 20260508174423 | 11 | 46 | 1.6 | 3.2 | 0.00 | 0.00 | 0.00 | 60 | 1020.7 |
| 20260508173924 | 11 | 48 | 3.2 | 3.2 | 0.00 | 0.00 | 0.00 | 61 | 1020.7 |
| 20260508173424 | 11 | 48 | 3.2 | 4.8 | 0.00 | 0.00 | 0.00 | 61 | 1020.7 |
| 20260508172924 | 11 | 48 | 1.6 | 4.8 | 0.00 | 0.00 | 0.00 | 61 | 1020.7 |
| 20260508172423 | 11 | 49 | 0.0 | 4.8 | 0.00 | 0.00 | 0.00 | 61 | 1020.6 |
| 20260508171924 | 11 | 49 | 0.0 | 4.8 | 0.00 | 0.00 | 0.00 | 61 | 1020.7 |
| 20260508171424 | 11 | 49 | 1.6 | 3.2 | 0.00 | 0.00 | 0.00 | 62 | 1020.6 |
| 20260508170924 | 11 | 50 | 1.6 | 4.8 | 0.00 | 0.00 | 0.00 | 62 | 1020.6 |
| 20260508170424 | 11 | 50 | 1.6 | 4.8 | 0.00 | 0.00 | 0.00 | 62 | 1020.6 |
| 20260508165924 | 11 | 50 | 0.0 | 3.2 | 0.00 | 0.00 | 0.00 | 62 | 1020.6 |
| 20260508165424 | 11 | 50 | 0.0 | 1.6 | 0.00 | 0.00 | 0.00 | 62 | 1020.6 |
| 20260508164924 | 11 | 50 | 0.0 | 1.6 | 0.00 | 0.00 | 0.00 | 62 | 1020.6 |
| 20260508164424 | 11 | 50 | 0.0 | 1.6 | 0.00 | 0.00 | 0.00 | 62 | 1020.5 |
| 20260508163924 | 11 | 50 | 1.6 | 4.8 | 0.00 | 0.00 | 0.00 | 62 | 1020.4 |
| 20260508163424 | 11 | 50 | 1.6 | 3.2 | 0.00 | 0.00 | 0.00 | 61 | 1020.5 |
| 20260508162924 | 11 | 50 | 1.6 | 3.2 | 0.00 | 0.00 | 0.00 | 61 | 1020.5 |
| 20260508162424 | 11 | 50 | 1.6 | 4.8 | 0.00 | 0.00 | 0.00 | 61 | 1020.5 |
| 20260508161924 | 11 | 49 | 1.6 | 4.8 | 0.00 | 0.00 | 0.00 | 61 | 1020.5 |
| 20260508161424 | 11 | 49 | 0.0 | 4.8 | 0.00 | 0.00 | 0.00 | 61 | 1020.6 |
| 20260508160924 | 11 | 49 | 0.0 | 4.8 | 0.00 | 0.00 | 0.00 | 60 | 1020.6 |
| 20260508160424 | 11 | 49 | 0.0 | 4.8 | 0.00 | 0.00 | 0.00 | 61 | 1020.6 |
| 20260508155924 | 11 | 49 | 0.0 | 1.6 | 0.00 | 0.00 | 0.00 | 60 | 1020.6 |
| 20260508155424 | 11 | 48 | 0.0 | 1.6 | 0.00 | 0.00 | 0.00 | 60 | 1020.6 |
| 20260508154924 | 11 | 47 | 1.6 | 3.2 | 0.00 | 0.00 | 0.00 | 59 | 1020.6 |
| 20260508154424 | 11 | 46 | 1.6 | 4.8 | 0.00 | 0.00 | 0.00 | 59 | 1020.6 |
| 20260508153924 | 12 | 32 | 1.6 | 4.8 | 0.00 | 0.00 | 0.00 | 58 | 1020.5 |
| 20260508153424 | 12 | 175 | 0.0 | 1.6 | 0.00 | 0.00 | 0.00 | 56 | 1020.6 |
| 20260508152924 | 12 | 169 | 0.0 | 1.6 | 0.00 | 0.00 | 0.00 | 56 | 1020.6 |
| 20260508152424 | 12 | 171 | 1.6 | 6.4 | 0.00 | 0.00 | 0.00 | 56 | 1020.6 |
| 20260508151924 | 12 | 154 | 1.6 | 4.8 | 0.00 | 0.00 | 0.00 | 55 | 1020.6 |
| 20260508151424 | 12 | 153 | 1.6 | 3.2 | 0.00 | 0.00 | 0.00 | 55 | 1020.6 |
| 20260508150924 | 12 | 148 | 3.2 | 6.4 | 0.00 | 0.00 | 0.00 | 55 | 1020.5 |
| 20260508150424 | 12 | 151 | 3.2 | 4.8 | 0.00 | 0.00 | 0.00 | 55 | 1020.4 |
| 20260508145924 | 12 | 155 | 3.2 | 8.0 | 0.00 | 0.00 | 0.00 | 55 | 1020.4 |
| 20260508145424 | 12 | 152 | 3.2 | 8.0 | 0.00 | 0.00 | 0.00 | 55 | 1020.3 |
| 20260508144924 | 12 | 150 | 3.2 | 4.8 | 0.00 | 0.00 | 0.00 | 55 | 1020.4 |
| 20260508144424 | 12 | 142 | 3.2 | 8.0 | 0.00 | 0.00 | 0.00 | 55 | 1020.4 |
| 20260508143924 | 13 | 150 | 4.8 | 9.7 | 0.00 | 0.00 | 0.00 | 55 | 1020.5 |
| 20260508143424 | 13 | 155 | 4.8 | 8.0 | 0.00 | 0.00 | 0.00 | 54 | 1020.5 |
| 20260508142924 | 13 | 159 | 4.8 | 8.0 | 0.00 | 0.00 | 0.00 | 54 | 1020.5 |
| 20260508142424 | 13 | 143 | 4.8 | 6.4 | 0.00 | 0.00 | 0.00 | 54 | 1020.3 |
| 20260508141924 | 13 | 148 | 4.8 | 8.0 | 0.00 | 0.00 | 0.00 | 54 | 1020.4 |
| 20260508141424 | 13 | 148 | 4.8 | 8.0 | 0.00 | 0.00 | 0.00 | 53 | 1020.4 |
| 20260508140924 | 13 | 141 | 4.8 | 6.4 | 0.00 | 0.00 | 0.00 | 53 | 1020.4 |
| 20260508140424 | 13 | 138 | 4.8 | 8.0 | 0.00 | 0.00 | 0.00 | 53 | 1020.4 |
| 20260508135924 | 13 | 139 | 6.4 | 11.3 | 0.00 | 0.00 | 0.00 | 52 | 1020.3 |
| 20260508135424 | 13 | 150 | 6.4 | 11.3 | 0.00 | 0.00 | 0.00 | 52 | 1020.4 |
| 20260508134924 | 13 | 140 | 6.4 | 11.3 | 0.00 | 0.00 | 0.00 | 52 | 1020.4 |
| 20260508134424 | 13 | 135 | 4.8 | 11.3 | 0.00 | 0.00 | 0.00 | 52 | 1020.4 |
| 20260508133924 | 13 | 146 | 4.8 | 8.0 | 0.00 | 0.00 | 0.00 | 51 | 1020.2 |
| 20260508133424 | 13 | 144 | 4.8 | 9.7 | 0.00 | 0.00 | 0.00 | 51 | 1020.2 |
| 20260508132924 | 13 | 148 | 4.8 | 9.7 | 0.00 | 0.00 | 0.00 | 51 | 1020.2 |
| 20260508132424 | 13 | 144 | 6.4 | 11.3 | 0.00 | 0.00 | 0.00 | 50 | 1020.1 |
| 20260508131924 | 13 | 144 | 6.4 | 12.9 | 0.00 | 0.00 | 0.00 | 50 | 1020.2 |
| 20260508131424 | 14 | 141 | 6.4 | 9.7 | 0.00 | 0.00 | 0.00 | 50 | 1020.1 |
| 20260508130924 | 14 | 145 | 4.8 | 8.0 | 0.00 | 0.00 | 0.00 | 49 | 1020.2 |
| 20260508130424 | 14 | 140 | 6.4 | 11.3 | 0.00 | 0.00 | 0.00 | 49 | 1020.1 |
| 20260508125924 | 14 | 157 | 4.8 | 12.9 | 0.00 | 0.00 | 0.00 | 49 | 1020.1 |
| 20260508125424 | 14 | 143 | 4.8 | 8.0 | 0.00 | 0.00 | 0.00 | 48 | 1020.1 |
| 20260508124924 | 14 | 140 | 6.4 | 11.3 | 0.00 | 0.00 | 0.00 | 48 | 1020.1 |
| 20260508124424 | 14 | 138 | 6.4 | 11.3 | 0.00 | 0.00 | 0.00 | 47 | 1020.0 |
| 20260508123924 | 15 | 140 | 4.8 | 16.1 | 0.00 | 0.00 | 0.00 | 47 | 1019.9 |
| 20260508123424 | 15 | 140 | 4.8 | 11.3 | 0.00 | 0.00 | 0.00 | 46 | 1020.0 |
| 20260508122924 | 15 | 153 | 4.8 | 8.0 | 0.00 | 0.00 | 0.00 | 46 | 1020.0 |
| 20260508122424 | 15 | 143 | 4.8 | 11.3 | 0.00 | 0.00 | 0.00 | 46 | 1020.0 |
| 20260508121924 | 15 | 136 | 4.8 | 8.0 | 0.00 | 0.00 | 0.00 | 45 | 1020.1 |
| 20260508121424 | 15 | 121 | 4.8 | 8.0 | 0.00 | 0.00 | 0.00 | 45 | 1020.1 |
| 20260508120924 | 15 | 143 | 3.2 | 12.9 | 0.00 | 0.00 | 0.00 | 45 | 1020.2 |
| 20260508120424 | 15 | 134 | 4.8 | 8.0 | 0.00 | 0.00 | 0.00 | 45 | 1020.2 |
| 20260508115924 | 15 | 144 | 3.2 | 11.3 | 0.00 | 0.00 | 0.00 | 45 | 1020.4 |
| 20260508115424 | 15 | 138 | 3.2 | 8.0 | 0.00 | 0.00 | 0.00 | 45 | 1020.4 |
| 20260508114924 | 15 | 123 | 3.2 | 6.4 | 0.00 | 0.00 | 0.00 | 45 | 1020.3 |
| 20260508114424 | 15 | 116 | 3.2 | 6.4 | 0.00 | 0.00 | 0.00 | 45 | 1020.2 |
| 20260508113924 | 15 | 117 | 4.8 | 9.7 | 0.00 | 0.00 | 0.00 | 44 | 1020.2 |
| 20260508113424 | 15 | 109 | 3.2 | 9.7 | 0.00 | 0.00 | 0.00 | 43 | 1019.9 |
| 20260508112924 | 15 | 76 | 3.2 | 14.5 | 0.00 | 0.00 | 0.00 | 42 | 1020.0 |
| 20260508112424 | 15 | 101 | 4.8 | 11.3 | 0.00 | 0.00 | 0.00 | 42 | 1020.1 |
| 20260508111924 | 15 | 130 | 4.8 | 8.0 | 0.00 | 0.00 | 0.00 | 42 | 1020.1 |
| 20260508111424 | 15 | 136 | 4.8 | 6.4 | 0.00 | 0.00 | 0.00 | 43 | 1020.0 |
| 20260508110924 | 15 | 136 | 3.2 | 6.4 | 0.00 | 0.00 | 0.00 | 43 | 1019.9 |
| 20260508110424 | 15 | 120 | 3.2 | 6.4 | 0.00 | 0.00 | 0.00 | 42 | 1019.7 |
| 20260508105924 | 15 | 106 | 3.2 | 8.0 | 0.00 | 0.00 | 0.00 | 42 | 1019.7 |
| 20260508105424 | 16 | 98 | 4.8 | 11.3 | 0.00 | 0.00 | 0.00 | 41 | 1019.7 |
| 20260508104924 | 16 | 125 | 4.8 | 6.4 | 0.00 | 0.00 | 0.00 | 41 | 1019.6 |
| 20260508104424 | 16 | 134 | 4.8 | 8.0 | 0.00 | 0.00 | 0.00 | 41 | 1019.7 |
| 20260508103924 | 16 | 139 | 3.2 | 6.4 | 0.00 | 0.00 | 0.00 | 41 | 1019.6 |
| 20260508103424 | 16 | 123 | 4.8 | 11.3 | 0.00 | 0.00 | 0.00 | 41 | 1019.5 |
| 20260508102924 | 16 | 131 | 4.8 | 8.0 | 0.00 | 0.00 | 0.00 | 41 | 1019.5 |
| 20260508102424 | 16 | 126 | 4.8 | 8.0 | 0.00 | 0.00 | 0.00 | 40 | 1019.5 |
| 20260508101924 | 16 | 132 | 6.4 | 11.3 | 0.00 | 0.00 | 0.00 | 40 | 1019.5 |
| 20260508101424 | 16 | 133 | 6.4 | 16.1 | 0.00 | 0.00 | 0.00 | 40 | 1019.6 |
| 20260508100924 | 16 | 132 | 4.8 | 9.7 | 0.00 | 0.00 | 0.00 | 40 | 1019.6 |
| 20260508100424 | 16 | 115 | 4.8 | 12.9 | 0.00 | 0.00 | 0.00 | 39 | 1019.5 |
| 20260508095924 | 16 | 123 | 6.4 | 11.3 | 0.00 | 0.00 | 0.00 | 39 | 1019.5 |
| 20260508095424 | 17 | 94 | 6.4 | 14.5 | 0.00 | 0.00 | 0.00 | 39 | 1019.5 |
| 20260508094924 | 17 | 119 | 4.8 | 12.9 | 0.00 | 0.00 | 0.00 | 38 | 1019.5 |
| 20260508094424 | 17 | 113 | 6.4 | 12.9 | 0.00 | 0.00 | 0.00 | 38 | 1019.4 |
| 20260508093924 | 17 | 126 | 8.0 | 14.5 | 0.00 | 0.00 | 0.00 | 38 | 1019.2 |
| 20260508093424 | 17 | 126 | 6.4 | 20.9 | 0.00 | 0.00 | 0.00 | 38 | 1019.2 |
| 20260508092924 | 17 | 124 | 6.4 | 12.9 | 0.00 | 0.00 | 0.00 | 38 | 1019.3 |
| 20260508092424 | 17 | 123 | 6.4 | 12.9 | 0.00 | 0.00 | 0.00 | 38 | 1019.3 |
| 20260508091924 | 17 | 117 | 4.8 | 12.9 | 0.00 | 0.00 | 0.00 | 38 | 1019.2 |
| 20260508091424 | 17 | 121 | 6.4 | 11.3 | 0.00 | 0.00 | 0.00 | 37 | 1019.1 |
| 20260508090924 | 17 | 124 | 6.4 | 14.5 | 0.00 | 0.00 | 0.00 | 37 | 1019.1 |
| 20260508090424 | 17 | 92 | 6.4 | 12.9 | 0.00 | 0.00 | 0.00 | 37 | 1018.9 |
| 20260508085924 | 17 | 76 | 6.4 | 14.5 | 0.00 | 0.00 | 0.00 | 37 | 1019.0 |
| 20260508085424 | 17 | 123 | 6.4 | 12.9 | 0.00 | 0.00 | 0.00 | 37 | 1018.8 |
| 20260508084924 | 18 | 115 | 8.0 | 12.9 | 0.00 | 0.00 | 0.00 | 37 | 1018.7 |
| 20260508084424 | 18 | 116 | 8.0 | 14.5 | 0.00 | 0.00 | 0.00 | 36 | 1018.7 |
| 20260508083924 | 18 | 126 | 6.4 | 12.9 | 0.00 | 0.00 | 0.00 | 36 | 1018.5 |
| 20260508083424 | 18 | 108 | 8.0 | 12.9 | 0.00 | 0.00 | 0.00 | 36 | 1018.5 |
| 20260508082924 | 18 | 113 | 6.4 | 14.5 | 0.00 | 0.00 | 0.00 | 36 | 1018.5 |
| 20260508082424 | 18 | 116 | 6.4 | 14.5 | 0.00 | 0.00 | 0.00 | 36 | 1018.5 |
| 20260508081924 | 18 | 113 | 6.4 | 12.9 | 0.00 | 0.00 | 0.00 | 36 | 1018.3 |
| 20260508081424 | 18 | 118 | 6.4 | 14.5 | 0.00 | 0.00 | 0.00 | 36 | 1018.2 |
| 20260508080924 | 18 | 92 | 4.8 | 11.3 | 0.00 | 0.00 | 0.00 | 36 | 1018.2 |
| 20260508080424 | 18 | 88 | 4.8 | 9.7 | 0.00 | 0.00 | 0.00 | 36 | 1018.1 |
| 20260508075924 | 18 | 84 | 4.8 | 11.3 | 0.00 | 0.00 | 0.00 | 35 | 1017.9 |
| 20260508075424 | 19 | 105 | 4.8 | 11.3 | 0.00 | 0.00 | 0.00 | 35 | 1017.9 |
| 20260508074924 | 19 | 107 | 6.4 | 9.7 | 0.00 | 0.00 | 0.00 | 35 | 1017.8 |
| 20260508074424 | 19 | 92 | 6.4 | 14.5 | 0.00 | 0.00 | 0.00 | 34 | 1017.8 |
| 20260508073924 | 19 | 97 | 6.4 | 12.9 | 0.00 | 0.00 | 0.00 | 34 | 1017.7 |
| 20260508073424 | 19 | 90 | 6.4 | 12.9 | 0.00 | 0.00 | 0.00 | 34 | 1017.6 |
| 20260508072924 | 20 | 95 | 6.4 | 12.9 | 0.00 | 0.00 | 0.00 | 34 | 1017.5 |
| 20260508072424 | 20 | 82 | 4.8 | 12.9 | 0.00 | 0.00 | 0.00 | 34 | 1017.6 |
| 20260508071924 | 20 | 73 | 4.8 | 11.3 | 0.00 | 0.00 | 0.00 | 34 | 1017.5 |
| 20260508071424 | 20 | 75 | 4.8 | 14.5 | 0.00 | 0.00 | 0.00 | 33 | 1017.4 |
| 20260508070924 | 20 | 49 | 4.8 | 9.7 | 0.00 | 0.00 | 0.00 | 33 | 1017.4 |
| 20260508070424 | 21 | 51 | 4.8 | 11.3 | 0.00 | 0.00 | 0.00 | 33 | 1017.3 |
| 20260508065924 | 21 | 47 | 3.2 | 12.9 | 0.00 | 0.00 | 0.00 | 32 | 1017.2 |
| 20260508065424 | 21 | 55 | 3.2 | 9.7 | 0.00 | 0.00 | 0.00 | 31 | 1017.1 |
| 20260508064924 | 21 | 55 | 4.8 | 8.0 | 0.00 | 0.00 | 0.00 | 31 | 1017.1 |
| 20260508064424 | 21 | 51 | 3.2 | 11.3 | 0.00 | 0.00 | 0.00 | 31 | 1017.1 |
| 20260508063924 | 22 | 51 | 1.6 | 12.9 | 0.00 | 0.00 | 0.00 | 30 | 1017.0 |
| 20260508063424 | 22 | 41 | 1.6 | 8.0 | 0.00 | 0.00 | 0.00 | 30 | 1017.0 |
| 20260508062924 | 22 | 53 | 1.6 | 6.4 | 0.00 | 0.00 | 0.00 | 30 | 1017.0 |
| 20260508062424 | 22 | 50 | 1.6 | 12.9 | 0.00 | 0.00 | 0.00 | 29 | 1017.0 |
| 20260508061924 | 22 | 57 | 1.6 | 8.0 | 0.00 | 0.00 | 0.00 | 28 | 1016.9 |
| 20260508061424 | 22 | 61 | 0.0 | 11.3 | 0.00 | 0.00 | 0.00 | 29 | 1016.8 |
| 20260508060925 | 22 | 52 | 1.6 | 3.2 | 0.00 | 0.00 | 0.00 | 29 | 1016.8 |
| 20260508060425 | 22 | 51 | 1.6 | 4.8 | 0.00 | 0.00 | 0.00 | 29 | 1016.8 |
| 20260508055925 | 22 | 60 | 1.6 | 8.0 | 0.00 | 0.00 | 0.00 | 28 | 1016.8 |
| 20260508055425 | 22 | 66 | 3.2 | 12.9 | 0.00 | 0.00 | 0.00 | 28 | 1016.9 |
| 20260508054924 | 22 | 81 | 1.6 | 8.0 | 0.00 | 0.00 | 0.00 | 27 | 1016.9 |
| 20260508054425 | 22 | 50 | 1.6 | 8.0 | 0.00 | 0.00 | 0.00 | 27 | 1016.8 |
| 20260508053925 | 22 | 55 | 1.6 | 6.4 | 0.00 | 0.00 | 0.00 | 28 | 1016.9 |
| 20260508053425 | 22 | 58 | 1.6 | 6.4 | 0.00 | 0.00 | 0.00 | 27 | 1016.9 |
| 20260508052925 | 22 | 55 | 1.6 | 11.3 | 0.00 | 0.00 | 0.00 | 26 | 1017.0 |
| 20260508052425 | 22 | 61 | 1.6 | 9.7 | 0.00 | 0.00 | 0.00 | 26 | 1017.0 |
| 20260508051925 | 22 | 66 | 1.6 | 16.1 | 0.00 | 0.00 | 0.00 | 26 | 1017.0 |
| 20260508051425 | 22 | 75 | 1.6 | 9.7 | 0.00 | 0.00 | 0.00 | 26 | 1017.0 |
| 20260508050925 | 22 | 42 | 1.6 | 6.4 | 0.00 | 0.00 | 0.00 | 27 | 1017.1 |
| 20260508050425 | 22 | 58 | 1.6 | 8.0 | 0.00 | 0.00 | 0.00 | 26 | 1017.2 |
| 20260508045925 | 22 | 57 | 1.6 | 6.4 | 0.00 | 0.00 | 0.00 | 26 | 1017.2 |
| 20260508045425 | 23 | 70 | 1.6 | 6.4 | 0.00 | 0.00 | 0.00 | 24 | 1017.2 |
| 20260508044925 | 22 | 61 | 1.6 | 4.8 | 0.00 | 0.00 | 0.00 | 25 | 1017.2 |
| 20260508044425 | 22 | 42 | 1.6 | 4.8 | 0.00 | 0.00 | 0.00 | 25 | 1017.2 |
| 20260508043925 | 22 | 49 | 1.6 | 12.9 | 0.00 | 0.00 | 0.00 | 25 | 1017.3 |
| 20260508043425 | 22 | 57 | 1.6 | 16.1 | 0.00 | 0.00 | 0.00 | 24 | 1017.4 |
| 20260508042925 | 22 | 45 | 3.2 | 8.0 | 0.00 | 0.00 | 0.00 | 24 | 1017.4 |
| 20260508042425 | 22 | 54 | 3.2 | 14.5 | 0.00 | 0.00 | 0.00 | 23 | 1017.4 |
| 20260508041925 | 22 | 43 | 1.6 | 4.8 | 0.00 | 0.00 | 0.00 | 24 | 1017.6 |
| 20260508041425 | 22 | 38 | 1.6 | 8.0 | 0.00 | 0.00 | 0.00 | 25 | 1017.6 |
| 20260508040925 | 22 | 49 | 1.6 | 8.0 | 0.00 | 0.00 | 0.00 | 24 | 1017.5 |
| 20260508040425 | 22 | 50 | 3.2 | 12.9 | 0.00 | 0.00 | 0.00 | 25 | 1017.6 |
| 20260508035925 | 22 | 50 | 3.2 | 9.7 | 0.00 | 0.00 | 0.00 | 24 | 1017.6 |
| 20260508035425 | 22 | 65 | 1.6 | 8.0 | 0.00 | 0.00 | 0.00 | 26 | 1017.6 |
| 20260508034925 | 22 | 53 | 3.2 | 8.0 | 0.00 | 0.00 | 0.00 | 24 | 1017.7 |
| 20260508034425 | 21 | 44 | 3.2 | 17.7 | 0.00 | 0.00 | 0.00 | 25 | 1017.7 |
| 20260508033925 | 21 | 54 | 1.6 | 8.0 | 0.00 | 0.00 | 0.00 | 24 | 1017.7 |
| 20260508033425 | 21 | 54 | 1.6 | 8.0 | 0.00 | 0.00 | 0.00 | 25 | 1017.8 |
| 20260508032925 | 21 | 69 | 1.6 | 4.8 | 0.00 | 0.00 | 0.00 | 27 | 1018.0 |
| 20260508032425 | 21 | 52 | 1.6 | 4.8 | 0.00 | 0.00 | 0.00 | 25 | 1018.0 |
| 20260508031925 | 21 | 59 | 3.2 | 8.0 | 0.00 | 0.00 | 0.00 | 24 | 1018.1 |
| 20260508031425 | 21 | 61 | 3.2 | 8.0 | 0.00 | 0.00 | 0.00 | 27 | 1018.2 |
| 20260508030925 | 20 | 71 | 3.2 | 9.7 | 0.00 | 0.00 | 0.00 | 25 | 1018.3 |
| 20260508030425 | 21 | 54 | 1.6 | 6.4 | 0.00 | 0.00 | 0.00 | 25 | 1018.3 |
| 20260508025925 | 20 | 56 | 1.6 | 14.5 | 0.00 | 0.00 | 0.00 | 25 | 1018.2 |
| 20260508025425 | 20 | 71 | 3.2 | 6.4 | 0.00 | 0.00 | 0.00 | 25 | 1018.3 |
| 20260508024925 | 20 | 61 | 3.2 | 8.0 | 0.00 | 0.00 | 0.00 | 25 | 1018.5 |
| 20260508024425 | 20 | 64 | 3.2 | 9.7 | 0.00 | 0.00 | 0.00 | 26 | 1018.6 |
| 20260508023925 | 20 | 54 | 3.2 | 9.7 | 0.00 | 0.00 | 0.00 | 26 | 1018.6 |
| 20260508023425 | 20 | 74 | 1.6 | 11.3 | 0.00 | 0.00 | 0.00 | 26 | 1018.7 |
| 20260508022925 | 20 | 45 | 1.6 | 4.8 | 0.00 | 0.00 | 0.00 | 27 | 1018.7 |
| 20260508022425 | 20 | 46 | 1.6 | 6.4 | 0.00 | 0.00 | 0.00 | 26 | 1018.8 |
| 20260508021925 | 20 | 49 | 1.6 | 6.4 | 0.00 | 0.00 | 0.00 | 26 | 1019.0 |
| 20260508021425 | 20 | 52 | 1.6 | 6.4 | 0.00 | 0.00 | 0.00 | 25 | 1019.0 |
| 20260508020925 | 20 | 49 | 1.6 | 6.4 | 0.00 | 0.00 | 0.00 | 27 | 1019.1 |
| 20260508020425 | 19 | 80 | 1.6 | 4.8 | 0.00 | 0.00 | 0.00 | 25 | 1019.4 |
| 20260508015925 | 19 | 64 | 1.6 | 14.5 | 0.00 | 0.00 | 0.00 | 27 | 1019.5 |
| 20260508015425 | 18 | 65 | 1.6 | 6.4 | 0.00 | 0.00 | 0.00 | 28 | 1019.3 |
| 20260508014925 | 18 | 47 | 1.6 | 4.8 | 0.00 | 0.00 | 0.00 | 27 | 1019.5 |
| 20260508014425 | 18 | 57 | 1.6 | 9.7 | 0.00 | 0.00 | 0.00 | 26 | 1019.7 |
| 20260508013925 | 18 | 71 | 1.6 | 4.8 | 0.00 | 0.00 | 0.00 | 28 | 1019.8 |
| 20260508013425 | 18 | 66 | 3.2 | 6.4 | 0.00 | 0.00 | 0.00 | 28 | 1019.9 |
| 20260508012925 | 18 | 75 | 3.2 | 6.4 | 0.00 | 0.00 | 0.00 | 29 | 1020.0 |
| 20260508012425 | 18 | 63 | 3.2 | 6.4 | 0.00 | 0.00 | 0.00 | 27 | 1020.1 |
| 20260508011925 | 18 | 71 | 3.2 | 12.9 | 0.00 | 0.00 | 0.00 | 28 | 1020.2 |
| 20260508011425 | 18 | 58 | 1.6 | 6.4 | 0.00 | 0.00 | 0.00 | 28 | 1020.2 |
| 20260508010925 | 18 | 59 | 1.6 | 4.8 | 0.00 | 0.00 | 0.00 | 29 | 1020.2 |
| 20260508010425 | 18 | 64 | 1.6 | 6.4 | 0.00 | 0.00 | 0.00 | 28 | 1020.2 |
| 20260508005925 | 17 | 64 | 1.6 | 11.3 | 0.00 | 0.00 | 0.00 | 31 | 1020.4 |
| 20260508005425 | 17 | 74 | 1.6 | 8.0 | 0.00 | 0.00 | 0.00 | 30 | 1020.5 |
| 20260508004925 | 17 | 55 | 1.6 | 4.8 | 0.00 | 0.00 | 0.00 | 29 | 1020.6 |
| 20260508004425 | 17 | 66 | 1.6 | 4.8 | 0.00 | 0.00 | 0.00 | 30 | 1020.5 |
| 20260508003925 | 17 | 90 | 1.6 | 38.6 | 0.00 | 0.00 | 0.00 | 31 | 1020.6 |
| 20260508003425 | 16 | 74 | 1.6 | 4.8 | 0.00 | 0.00 | 0.00 | 34 | 1020.6 |
| 20260508002925 | 16 | 73 | 1.6 | 11.3 | 0.00 | 0.00 | 0.00 | 34 | 1020.6 |